Stuttgart-Ost, Germany

8:29 AM CEST on October 19, 2017 (GMT +0200)
Stuttgart-Ost

Weather History for 10739 - March, 2014

Change the Weather History Date:

Sunday, March 9, 2014

  Actual Average Record
Temperature  
Mean Temperature 52 °F -  
Max Temperature 65 °F 51 °F - ()
Min Temperature 40 °F 34 °F - ()
Degree Days  
Heating Degree Days 12    
Growing Degree Days 2 (Base 50)    
Moisture  
Dew Point 31 °F    
Average Humidity 34    
Maximum Humidity 54    
Minimum Humidity 16    
Precipitation  
Precipitation 0.00 in - - ()
Sea Level Pressure  
Sea Level Pressure 30.42 in    
Wind  
Wind Speed 5 mph ()    
Max Wind Speed 11 mph    
Max Gust Speed -    
Visibility 7.5 miles    
Events      
T = Trace of Precipitation, MM = Missing Value Source: Averaged Metar Reports

Daily Weather History Graph

Daily Weather History Graph

Search for Another Location

Airport or City:

Trip Planner

Search our weather history database for the weather conditions in past years. The results will help you decide how hot, cold, wet, or windy it might be!

Date:

Astronomy

Mar. 09, 2014 Rise Set
Actual Time 6:49 AM CET 6:18 PM CET
Civil Twilight 6:18 AM CET 6:50 PM CET
Nautical Twilight 5:41 AM CET 7:26 PM CET
Astronomical Twilight 5:04 AM CET 8:04 PM CET
Moon 11:36 AM CET (3/9) 2:23 AM CET (3/9)
Length of Visible Light 12h 32m
Length of Day
11h 29m
First Quarter, 59% of the Moon is Illuminated
Mar 9
First Quarter
Mar 16
Full
Mar 24
Last Quarter
Mar 30
New
Apr 7
First Quarter

Hourly Weather History & Observations

Time (CET) Temp. Dew Point Humidity Pressure Visibility Wind Dir Wind Speed Gust Speed Precip Events Conditions
12:00 AM 46 °F 33 °F 50% 30.47 in 4 mi NE 4.5 mph - -   Light Haze
1:00 AM 44 °F 33 °F 54% 30.48 in 4 mi ENE 4.5 mph - -   Light Haze
2:00 AM 45 °F 31 °F 47% 30.47 in 5 mi SE 2.2 mph - -  
3:00 AM 46 °F 31 °F 43% 30.46 in 5 mi SSE 2.2 mph - -  
5:00 AM 43 °F 31 °F 51% 30.45 in 5 mi SE 4.5 mph - -  
6:00 AM 42 °F 30 °F 51% 30.46 in 5 mi SSE 6.7 mph - -  
7:00 AM 42 °F 30 °F 50% 30.47 in 5 mi SSE 4.5 mph - -  
8:00 AM 43 °F 31 °F 52% 30.47 in 5 mi SSE 4.5 mph - -  
9:00 AM 46 °F 33 °F 48% 30.48 in 5 mi SSE 2.2 mph - -  
10:00 AM 50 °F 30 °F 33% 30.47 in 6 mi NE 2.2 mph - -  
11:00 AM 55 °F 31 °F 28% 30.45 in 6 mi ESE 2.2 mph - -  
12:00 PM 60 °F 31 °F 21% 30.43 in 7 mi ESE 4.5 mph - -  
1:00 PM 63 °F 29 °F 17% 30.40 in 12 mi ESE 8.9 mph - -  
2:00 PM 63 °F 30 °F 18% 30.39 in 9 mi NE 4.5 mph - -  
3:00 PM 64 °F 29 °F 16% 30.37 in 13 mi NNE 6.7 mph - -  
4:00 PM 65 °F 31 °F 17% 30.35 in 14 mi ENE 6.7 mph - -  
5:00 PM 63 °F 28 °F 16% 30.34 in 11 mi East 11.2 mph - -  
6:00 PM 60 °F 28 °F 18% 30.35 in 14 mi East 11.2 mph - -  
7:00 PM 58 °F 30 °F 22% 30.36 in 9 mi East 11.2 mph - -  
8:00 PM 56 °F 33 °F 29% 30.36 in 7 mi East 4.5 mph - -  
9:00 PM 54 °F 33 °F 33% 30.37 in 7 mi ESE 8.9 mph - -  
10:00 PM 51 °F 32 °F 35% 30.37 in 7 mi East 6.7 mph - -  
11:00 PM 49 °F 32 °F 39% 30.37 in 7 mi ESE 6.7 mph - -